FW9064 Weather Reports


Display with metric or nautical units.
time (UTC)temp
F
wind
direction
speed
MPH
gust
MPH
rain 1hr
in
rain 24hr
in
rain mn
in
humidity
%
barometer
mb
20260906100657 78 111 0.0 0.0 0.00 0.00 0.00 90 1013.3
20260906100157 78 94 2.0 2.0 0.00 0.00 0.00 90 1013.3
20260906095651 78 110 0.0 0.0 0.00 0.00 0.00 90 1013.5
20260906095147 79 90 1.0 1.0 0.00 0.00 0.00 91 1013.3
20260906094646 79 109 0.0 0.0 0.00 0.00 0.00 91 1012.9
20260906094142 79 110 0.0 0.0 0.00 0.00 0.00 90 1012.9
20260906093638 79 112 0.0 0.0 0.00 0.00 0.00 90 1012.6
20260906093138 79 111 0.0 0.0 0.00 0.00 0.00 89 1012.5
20260906092633 79 111 0.0 0.0 0.00 0.00 0.00 90 1012.7
20260906092133 80 110 0.0 0.0 0.00 0.00 0.00 90 1012.3
20260906091629 80 110 0.0 0.0 0.00 0.00 0.00 90 1012.1
20260906091126 80 109 0.0 0.0 0.00 0.00 0.00 90 1012.5
20260906090621 80 103 1.0 1.0 0.00 0.00 0.00 90 1011.9
20260906090121 80 112 0.0 0.0 0.00 0.00 0.00 90 1012.0
20260906085620 80 112 1.0 1.0 0.00 0.00 0.00 90 1012.0
20260906085114 80 72 3.0 5.0 0.00 0.00 0.00 90 1012.1
20260906084609 80 111 0.0 0.0 0.00 0.00 0.00 91 1012.2
20260906084108 80 114 0.0 0.0 0.00 0.00 0.00 92 1012.3
20260906083604 80 111 0.0 0.0 0.00 0.00 0.00 91 1012.5
20260906083103 80 113 0.0 0.0 0.00 0.00 0.00 92 1012.3
20260906082558 80 111 0.0 0.0 0.00 0.00 0.00 91 1012.3
20260906082054 80 111 0.0 0.0 0.00 0.00 0.00 91 1012.4
20260906081550 80 110 0.0 0.0 0.00 0.00 0.00 91 1012.4
20260906081045 80 116 1.0 2.0 0.00 0.00 0.00 91 1012.5
20260906080542 80 112 0.0 0.0 0.00 0.00 0.00 92 1012.6
20260906080037 80 102 1.0 1.0 0.00 0.00 0.00 93 1012.8
20260906075532 79 107 0.0 0.0 0.00 0.00 0.00 94 1012.7
20260906075026 79 110 0.0 0.0 0.00 0.00 0.00 94 1012.5
20260906074521 79 110 0.0 0.0 0.00 0.00 0.00 94 1012.7
20260906074019 80 104 0.0 0.0 0.00 0.00 0.00 94 1012.7
20260906073514 80 105 0.0 0.0 0.00 0.00 0.00 94 1012.3
20260906073011 80 108 0.0 0.0 0.00 0.00 0.00 94 1012.5
20260906072505 80 110 0.0 0.0 0.00 0.00 0.00 94 1012.3
20260906072002 80 109 0.0 0.0 0.00 0.00 0.00 94 1012.3
20260906071457 79 110 0.0 0.0 0.00 0.00 0.00 94 1012.2
20260906070952 79 110 0.0 0.0 0.00 0.00 0.00 95 1012.2
20260906070449 79 109 0.0 0.0 0.00 0.00 0.00 95 1012.4
20260906065944 78 116 0.0 0.0 0.00 0.00 0.00 96 1012.5
20260906065443 78 116 0.0 0.0 0.00 0.00 0.00 96 1012.6
20260906064939 78 116 0.0 0.0 0.00 0.00 0.00 96 1012.6
20260906064436 77 115 0.0 0.0 0.00 0.00 0.00 97 1012.7
20260906063930 77 115 0.0 0.0 0.00 0.00 0.00 97 1012.5
20260906063425 77 114 0.0 0.0 0.00 0.00 0.00 97 1012.8
20260906062920 77 117 0.0 0.0 0.00 0.00 0.00 97 1013.0
20260906062415 77 116 0.0 0.0 0.00 0.00 0.00 97 1012.8
20260906061910 77 115 0.0 0.0 0.00 0.00 0.00 97 1012.7
20260906061406 77 116 0.0 0.0 0.00 0.00 0.00 97 1013.1
20260906060900 77 115 0.0 0.0 0.00 0.00 0.00 97 1013.2
20260906060358 77 116 0.0 0.0 0.00 0.00 0.00 97 1013.3
20260906055854 77 115 0.0 0.0 0.00 0.00 0.00 97 1013.2
20260906055349 77 115 0.0 0.0 0.00 0.00 0.00 97 1013.1
20260906054844 77 115 0.0 0.0 0.00 0.00 0.00 97 1013.2
20260906054339 77 116 0.0 0.0 0.00 0.00 0.00 97 1013.1
20260906053835 77 115 0.0 0.0 0.00 0.00 0.00 97 1013.1
20260906053331 77 115 0.0 0.0 0.00 0.00 0.00 97 1013.3
20260906052826 77 115 0.0 0.0 0.00 0.00 0.00 96 1013.3
20260906052323 77 114 0.0 0.0 0.00 0.00 0.00 96 1013.2
20260906051819 77 117 0.0 0.0 0.00 0.00 0.00 96 1013.2
20260906051319 77 115 0.0 0.0 0.00 0.00 0.00 96 1013.4
20260906050814 77 115 0.0 0.0 0.00 0.00 0.00 96 1013.4
20260906050309 77 116 0.0 0.0 0.00 0.00 0.00 96 1013.6
20260906045808 77 116 0.0 0.0 0.00 0.00 0.00 96 1013.7
20260906045305 77 115 0.0 0.0 0.00 0.00 0.00 96 1013.3
20260906044759 78 116 0.0 0.0 0.00 0.00 0.00 96 1013.6
20260906044253 78 117 0.0 0.0 0.00 0.00 0.00 96 1013.6
20260906043749 78 115 0.0 0.0 0.00 0.00 0.00 96 1013.7
20260906043246 78 116 0.0 0.0 0.00 0.00 0.00 95 1013.4
20260906042745 78 113 0.0 0.0 0.00 0.00 0.00 95 1013.7
20260906042244 78 115 0.0 0.0 0.00 0.00 0.00 95 1013.4
20260906041740 78 115 0.0 0.0 0.00 0.00 0.00 95 1013.3
20260906041235 78 114 0.0 0.0 0.00 0.00 0.00 95 1013.4
20260906040730 78 113 0.0 0.0 0.00 0.00 0.00 95 1013.4
20260906040225 78 116 0.0 0.0 0.00 0.00 0.00 95 1013.2
20260906035721 78 113 0.0 0.0 0.00 0.00 0.00 94 1013.2
20260906035217 78 115 0.0 0.0 0.00 0.00 0.00 95 1013.3
20260906034716 78 120 0.0 0.0 0.00 0.00 0.00 95 1013.3
20260906034211 78 114 0.0 0.0 0.00 0.00 0.00 94 1013.2
20260906033707 78 115 0.0 0.0 0.00 0.00 0.00 94 1013.1
20260906033206 78 116 0.0 0.0 0.00 0.00 0.00 94 1013.3
20260906032703 78 115 0.0 0.0 0.00 0.00 0.00 94 1013.3
20260906032158 79 116 0.0 0.0 0.00 0.00 0.00 94 1013.4
20260906031653 79 117 0.0 0.0 0.00 0.00 0.00 94 1013.4
20260906031148 79 114 0.0 0.0 0.00 0.00 0.00 93 1013.2
20260906030648 79 115 0.0 0.0 0.00 0.00 0.00 93 1013.3
20260906030143 79 115 0.0 0.0 0.00 0.00 0.00 93 1013.3
20260906025642 79 116 0.0 0.0 0.00 0.00 0.00 93 1013.4
20260906025142 79 115 0.0 0.0 0.00 0.00 0.00 93 1013.3
20260906024637 80 115 0.0 0.0 0.00 0.00 0.00 92 1013.2
20260906024136 80 116 0.0 0.0 0.00 0.00 0.00 92 1013.2
20260906023633 80 118 0.0 0.0 0.00 0.00 0.00 91 1013.2
20260906023132 80 129 0.0 0.0 0.00 0.00 0.00 91 1013.1
20260906022627 80 130 0.0 0.0 0.00 0.00 0.00 91 1012.9
20260906022123 80 119 0.0 0.0 0.00 0.00 0.00 90 1013.0
20260906021619 80 112 0.0 0.0 0.00 0.00 0.00 90 1013.0
20260906021117 81 113 0.0 0.0 0.00 0.00 0.00 90 1012.9
20260906020617 81 112 0.0 0.0 0.00 0.00 0.00 89 1013.0
20260906020112 81 112 0.0 0.0 0.00 0.00 0.00 89 1013.0
20260906015606 81 112 0.0 0.0 0.00 0.00 0.00 89 1012.7
20260906015105 81 112 0.0 0.0 0.00 0.00 0.00 88 1013.0
20260906014600 82 113 0.0 0.0 0.00 0.00 0.00 88 1012.8
20260906014056 82 112 0.0 0.0 0.00 0.00 0.00 87 1012.7
20260906013551 82 112 0.0 0.0 0.00 0.00 0.00 87 1012.4
20260906013047 82 124 0.0 0.0 0.00 0.00 0.00 86 1012.4
20260906012542 82 123 0.0 0.0 0.00 0.00 0.00 86 1012.2
20260906012041 83 113 0.0 0.0 0.00 0.00 0.00 85 1012.2
20260906011537 83 114 0.0 0.0 0.00 0.00 0.00 84 1012.0
20260906011037 83 113 0.0 0.0 0.00 0.00 0.00 84 1011.7
20260906010532 84 114 0.0 0.0 0.00 0.00 0.00 83 1011.8
20260906010029 84 113 0.0 0.0 0.00 0.00 0.00 83 1012.0
20260906005528 84 111 0.0 0.0 0.00 0.00 0.00 83 1012.0
20260906005027 84 114 0.0 0.0 0.00 0.00 0.00 83 1011.9
20260906004526 84 112 0.0 0.0 0.00 0.00 0.00 82 1011.7
20260906004021 85 114 0.0 0.0 0.00 0.00 0.00 82 1011.7
20260906003516 85 115 0.0 0.0 0.00 0.00 0.00 81 1011.7
20260906003013 85 108 0.0 1.0 0.00 0.00 0.00 81 1011.7
20260906002507 86 112 0.0 1.0 0.00 0.00 0.00 80 1011.7
20260906002002 86 123 1.0 1.0 0.00 0.00 0.00 80 1011.7
20260906001457 86 117 1.0 2.0 0.00 0.00 0.00 80 1011.6
20260906000946 86 112 0.0 0.0 0.00 0.00 0.00 80 1011.6
20260906000442 87 109 0.0 0.0 0.00 0.00 0.00 79 1011.6
20260905235942 87 115 0.0 0.0 0.00 0.00 0.00 78 1011.8
20260905235436 87 114 0.0 0.0 0.00 0.00 0.00 78 1012.0
20260905234931 88 113 0.0 0.0 0.00 0.00 0.00 78 1012.0
20260905234426 88 113 0.0 1.0 0.00 0.00 0.00 77 1011.8
20260905233921 88 139 1.0 1.0 0.00 0.00 0.00 76 1011.7
20260905233416 89 122 0.0 1.0 0.00 0.00 0.00 76 1011.6
20260905232915 89 215 2.0 2.0 0.00 0.00 0.00 75 1011.8
20260905232412 89 170 2.0 3.0 0.00 0.00 0.00 75 1011.7
20260905231907 89 109 1.0 1.0 0.00 0.00 0.00 75 1011.8
20260905231403 89 115 0.0 0.0 0.00 0.00 0.00 74 1011.8
20260905230859 90 114 0.0 0.0 0.00 0.00 0.00 74 1011.5
20260905230356 90 113 0.0 1.0 0.00 0.00 0.00 73 1011.4
20260905225855 90 115 0.0 0.0 0.00 0.00 0.00 72 1011.7
20260905225351 91 126 1.0 1.0 0.00 0.00 0.00 71 1011.6
20260905224846 91 115 0.0 0.0 0.00 0.00 0.00 71 1011.5
20260905224341 91 113 0.0 1.0 0.00 0.00 0.00 70 1011.3
20260905223836 91 115 0.0 0.0 0.00 0.00 0.00 69 1011.4
20260905223334 91 88 1.0 2.0 0.00 0.00 0.00 69 1011.4
20260905222828 92 120 2.0 3.0 0.00 0.00 0.00 68 1011.4
20260905222327 92 120 1.0 1.0 0.00 0.00 0.00 68 1011.4
20260905221823 93 217 2.0 3.0 0.00 0.00 0.00 67 1011.3
20260905221320 93 115 1.0 3.0 0.00 0.00 0.00 66 1011.3
20260905220816 93 126 0.0 1.0 0.00 0.00 0.00 65 1011.3
20260905220312 94 203 2.0 5.0 0.00 0.00 0.00 65 1011.2
20260905215811 94 113 0.0 0.0 0.00 0.00 0.00 64 1011.1
20260905215307 94 113 1.0 1.0 0.00 0.00 0.00 64 1011.3
20260905214803 94 121 1.0 1.0 0.00 0.00 0.00 64 1011.1
20260905214258 94 127 0.0 0.0 0.00 0.00 0.00 63 1011.3
20260905213753 94 105 0.0 1.0 0.00 0.00 0.00 62 1011.2
20260905213249 95 116 1.0 2.0 0.00 0.00 0.00 60 1011.2
20260905212744 96 117 0.0 0.0 0.00 0.00 0.00 57 1011.2
20260905212243 98 152 1.0 1.0 0.00 0.00 0.00 54 1011.2
20260905211743 98 117 0.0 0.0 0.00 0.00 0.00 53 1011.4
20260905211238 98 97 0.0 0.0 0.00 0.00 0.00 53 1011.4
20260905210735 98 186 1.0 2.0 0.00 0.00 0.00 53 1011.2
20260905210234 98 112 0.0 0.0 0.00 0.00 0.00 51 1011.5
20260905205733 98 113 0.0 0.0 0.00 0.00 0.00 50 1011.3
20260905205229 98 117 0.0 0.0 0.00 0.00 0.00 50 1011.3
20260905204728 97 113 0.0 0.0 0.00 0.00 0.00 50 1011.5
20260905204224 96 105 0.0 0.0 0.00 0.00 0.00 52 1011.4
20260905203723 96 114 0.0 0.0 0.00 0.00 0.00 55 1011.6
20260905203219 96 115 0.0 0.0 0.00 0.00 0.00 53 1011.5
20260905202714 97 115 0.0 0.0 0.00 0.00 0.00 50 1011.6
20260905202210 97 112 0.0 0.0 0.00 0.00 0.00 50 1011.7
20260905201705 98 108 0.0 0.0 0.00 0.00 0.00 52 1011.5
20260905201205 98 269 1.0 1.0 0.00 0.00 0.00 50 1011.8
20260905200700 99 112 0.0 0.0 0.00 0.00 0.00 50 1011.7
20260905200155 99 113 1.0 1.0 0.00 0.00 0.00 48 1011.9
20260905195654 99 112 0.0 0.0 0.00 0.00 0.00 49 1011.7
20260905195149 99 129 1.0 1.0 0.00 0.00 0.00 48 1011.7
20260905194644 99 105 0.0 1.0 0.00 0.00 0.00 48 1011.9
20260905194144 99 94 1.0 1.0 0.00 0.00 0.00 48 1012.0
20260905193638 99 106 0.0 0.0 0.00 0.00 0.00 48 1012.0
20260905193133 99 117 1.0 2.0 0.00 0.00 0.00 47 1012.3
20260905192628 99 117 0.0 1.0 0.00 0.00 0.00 49 1012.1
20260905192125 99 102 2.0 2.0 0.00 0.00 0.00 49 1012.1
20260905191624 100 95 3.0 3.0 0.00 0.00 0.00 47 1012.2
20260905191122 100 117 0.0 1.0 0.00 0.00 0.00 49 1012.4
20260905190621 101 86 2.0 3.0 0.00 0.00 0.00 48 1012.6
20260905190121 101 116 0.0 0.0 0.00 0.00 0.00 48 1012.4
20260905185619 100 113 0.0 0.0 0.00 0.00 0.00 46 1012.8
20260905185114 100 120 1.0 2.0 0.00 0.00 0.00 48 1012.7
20260905184609 101 109 2.0 2.0 0.00 0.00 0.00 47 1012.6
20260905184108 100 138 1.0 1.0 0.00 0.00 0.00 49 1012.9
20260905183607 100 99 0.0 1.0 0.00 0.00 0.00 48 1013.0
20260905183102 100 69 0.0 1.0 0.00 0.00 0.00 50 1012.8
20260905182602 100 129 0.0 0.0 0.00 0.00 0.00 48 1013.2
20260905182057 100 99 1.0 2.0 0.00 0.00 0.00 49 1013.1
20260905181557 99 135 0.0 1.0 0.00 0.00 0.00 52 1013.6
20260905181056 100 138 2.0 3.0 0.00 0.00 0.00 49 1013.6
20260905180551 99 144 1.0 1.0 0.00 0.00 0.00 51 1013.6
20260905180046 98 68 2.0 2.0 0.00 0.00 0.00 51 1013.3
20260905175545 98 88 2.0 2.0 0.00 0.00 0.00 50 1013.5
20260905175041 98 99 3.0 6.0 0.00 0.00 0.00 52 1013.8
20260905174536 96 117 2.0 3.0 0.00 0.00 0.00 54 1013.8
20260905174032 96 113 0.0 0.0 0.00 0.00 0.00 55 1013.8
20260905173528 97 119 0.0 1.0 0.00 0.00 0.00 53 1013.9
20260905173023 97 125 1.0 1.0 0.00 0.00 0.00 54 1014.2
20260905172521 99 105 1.0 1.0 0.00 0.00 0.00 51 1014.2
20260905172017 98 158 1.0 1.0 0.00 0.00 0.00 52 1014.1
20260905171514 99 116 0.0 0.0 0.00 0.00 0.00 51 1014.2
20260905171009 100 103 0.0 1.0 0.00 0.00 0.00 48 1014.2
20260905170506 100 119 0.0 0.0 0.00 0.00 0.00 51 1014.4
20260905170000 99 117 0.0 1.0 0.00 0.00 0.00 50 1014.3
20260905165455 98 103 3.0 3.0 0.00 0.00 0.00 52 1014.6
20260905164950 98 112 2.0 3.0 0.00 0.00 0.00 53 1014.4
20260905164449 99 138 1.0 2.0 0.00 0.00 0.00 51 1014.5
20260905163944 99 106 0.0 1.0 0.00 0.00 0.00 53 1014.6
20260905163441 97 91 1.0 1.0 0.00 0.00 0.00 54 1014.6
20260905162937 96 115 0.0 0.0 0.00 0.00 0.00 56 1014.7
20260905162432 97 98 1.0 2.0 0.00 0.00 0.00 54 1014.7
20260905161927 97 105 0.0 0.0 0.00 0.00 0.00 55 1014.7
20260905161426 98 124 0.0 0.0 0.00 0.00 0.00 55 1014.9
20260905160924 97 133 1.0 1.0 0.00 0.00 0.00 55 1014.7
20260905160418 96 113 1.0 2.0 0.00 0.00 0.00 57 1014.8
20260905155913 96 104 1.0 1.0 0.00 0.00 0.00 58 1014.6
20260905155413 95 110 0.0 0.0 0.00 0.00 0.00 58 1014.7
20260905154911 95 116 0.0 1.0 0.00 0.00 0.00 59 1014.7
20260905154407 95 118 1.0 1.0 0.00 0.00 0.00 60 1014.5
20260905153902 93 112 0.0 0.0 0.00 0.00 0.00 63 1014.4
20260905153359 93 130 2.0 3.0 0.00 0.00 0.00 62 1014.7
20260905152858 94 113 2.0 2.0 0.00 0.00 0.00 62 1014.7
20260905152357 93 115 1.0 1.0 0.00 0.00 0.00 61 1014.6
20260905151853 93 100 1.0 1.0 0.00 0.00 0.00 62 1014.6
20260905151348 93 113 1.0 1.0 0.00 0.00 0.00 63 1014.6
20260905150843 92 107 1.0 1.0 0.00 0.00 0.00 64 1014.7
20260905150337 92 120 3.0 5.0 0.00 0.00 0.00 64 1014.8
20260905145835 91 102 0.0 1.0 0.00 0.00 0.00 65 1014.9
20260905145334 91 107 0.0 0.0 0.00 0.00 0.00 66 1014.7
20260905144834 91 110 1.0 1.0 0.00 0.00 0.00 67 1014.6
20260905144329 90 97 0.0 1.0 0.00 0.00 0.00 68 1014.7
20260905143828 90 84 1.0 2.0 0.00 0.00 0.00 68 1015.0
20260905143322 89 72 1.0 3.0 0.00 0.00 0.00 69 1014.9
20260905142821 89 135 0.0 1.0 0.00 0.00 0.00 69 1014.9
20260905142315 88 80 2.0 3.0 0.00 0.00 0.00 70 1014.9
20260905141812 89 106 1.0 1.0 0.00 0.00 0.00 71 1015.0
20260905141307 88 113 1.0 1.0 0.00 0.00 0.00 73 1014.9
20260905140803 88 104 1.0 1.0 0.00 0.00 0.00 73 1015.1
20260905140302 88 105 2.0 2.0 0.00 0.00 0.00 72 1014.8
20260905135801 87 114 1.0 1.0 0.00 0.00 0.00 76 1015.0
20260905135257 86 106 0.0 0.0 0.00 0.00 0.00 78 1015.1
20260905134757 86 112 0.0 0.0 0.00 0.00 0.00 77 1015.0
20260905134251 85 114 0.0 0.0 0.00 0.00 0.00 81 1015.0
20260905133745 83 110 0.0 0.0 0.00 0.00 0.00 83 1015.0
20260905133241 83 95 0.0 2.0 0.00 0.00 0.00 84 1015.1
20260905132740 82 114 1.0 1.0 0.00 0.00 0.00 84 1014.9
20260905132235 82 102 1.0 1.0 0.00 0.00 0.00 85 1014.9
20260905131730 81 101 0.0 0.0 0.00 0.00 0.00 87 1015.0
20260905131226 81 110 0.0 0.0 0.00 0.00 0.00 89 1015.0
20260905130720 81 110 0.0 0.0 0.00 0.00 0.00 90 1014.9
20260905130219 80 107 0.0 0.0 0.00 0.00 0.00 90 1015.1
20260905125715 79 109 0.0 0.0 0.00 0.00 0.00 91 1015.1
20260905125210 78 109 0.0 0.0 0.00 0.00 0.00 93 1015.0
20260905124706 78 110 0.0 0.0 0.00 0.00 0.00 95 1015.3
20260905124202 77 109 0.0 0.0 0.00 0.00 0.00 97 1015.2
20260905123656 76 112 0.0 0.0 0.00 0.00 0.00 98 1015.2
20260905123154 76 109 0.0 0.0 0.00 0.00 0.00 99 1015.2
20260905122653 75 108 0.0 0.0 0.00 0.00 0.00 99 1014.9
20260905122148 75 112 0.0 0.0 0.00 0.00 0.00 99 1015.1
20260905121642 75 111 0.0 0.0 0.00 0.00 0.00 99 1015.1
20260905121138 74 110 0.0 0.0 0.00 0.00 0.00 99 1014.9
20260905120637 74 109 0.0 0.0 0.00 0.00 0.00 99 1015.0
20260905120132 74 110 0.0 0.0 0.00 0.00 0.00 99 1014.9
20260905115631 74 112 0.0 0.0 0.00 0.00 0.00 99 1015.0
20260905115127 73 111 0.0 0.0 0.00 0.00 0.00 99 1014.9
20260905114626 73 110 0.0 0.0 0.00 0.00 0.00 99 1014.9
20260905114125 73 113 0.0 0.0 0.00 0.00 0.00 99 1014.9
20260905113620 73 111 0.0 0.0 0.00 0.00 0.00 99 1014.8
20260905113115 73 111 0.0 0.0 0.00 0.00 0.00 99 1014.9
20260905112610 73 112 0.0 0.0 0.00 0.00 0.00 99 1014.7
20260905112106 73 114 0.0 0.0 0.00 0.00 0.00 99 1014.8
20260905111601 73 113 0.0 0.0 0.00 0.00 0.00 99 1014.9
20260905111059 73 111 0.0 0.0 0.00 0.00 0.00 99 1014.6
20260905110558 73 112 0.0 0.0 0.00 0.00 0.00 99 1014.6
20260905110054 73 108 0.0 0.0 0.00 0.00 0.00 99 1014.8
20260905105553 73 111 0.0 0.0 0.00 0.00 0.00 99 1014.5
20260905105048 73 110 0.0 0.0 0.00 0.00 0.00 99 1014.5
20260905104544 73 111 0.0 0.0 0.00 0.00 0.00 99 1014.4
20260905104043 73 110 0.0 0.0 0.00 0.00 0.00 99 1014.5
20260905103539 73 110 0.0 0.0 0.00 0.00 0.00 99 1014.5
20260905103035 73 109 0.0 0.0 0.00 0.00 0.00 99 1014.5
20260905102530 73 112 0.0 0.0 0.00 0.00 0.00 99 1014.4
20260905102027 73 114 0.0 0.0 0.00 0.00 0.00 99 1014.4
20260905101525 73 107 0.0 0.0 0.00 0.00 0.00 99 1014.4